SCP
0 0 0 0 0 0 0 0 0 0 0 0 0 0 0 0 0 0 0 0 0 0 0 0 0 0 0 0 0 0 0 0 0 0 0 0 0 0 0 0 0 0 0 0
0 0 0 0 0 0 0 0 0 0 0 0 0 0 0 0 0 0 0 0 0 0 0 0 0 0 0 0 0 0 0 0 0 0 0 0 0 0 0 0 0 0 0 0
0 0 0 0 0 0 0 0 0 0 0 0 0 0 0 0 0 0 0 0 0 0 0 0 0 0 0 0 0 0 0 0 0 0 0 0 0 0 0 0 0 0 0 0
0 0 0 0 0 0 0 0 0 0 0 0 0 0 0 0 0 0 0 0 0 0 0 0 0 0 0 0 0 0 0 0 0 0 0 0 0 0 0 0 0 0 0 0
0 0 0 0 0 0 0 0 0 0 0 0 0 0 0 0 0 0 0 0 0 0 0 0 0 0 0 0 0 0 0 0 0 0 0 0 0 0 0 0 0 0 0 0
0 0 0 0 0 0 0 0 0 0 0 0 0 0 0 0 0 0 0 0 0 0 0 0 0 0 0 0 0 0 0 0 0 0 0 0 0 0 0 0 0 0 0 0
0 0 0 0 0 0 0 0 0 0 0 0 0 0 0 0 0 0 0 0 0 0 0 0 0 0 0 0 0 0 0 0 0 0 0 0 0 0 0 0 0 0 0 0
0 0 0 0 0 0 0 0 0 0 0 0 0 0 0 0 0 0 0 0 0 0 0 0 0 0 0 0 0 0 0 0 0 0 0 0 0 0 0 0 0 0 0 0
0 0 0 0 0 0 0 0 -0 -0 0 0 0 0 0 0 0 -0 -0 0 0 0 0 -0 -0 -0 0 0 0 0 0 0 0 0 0 0 0 0 0 0 0 0 0 0
0 0 0 -0 -0 -0 -0 0 0 0 0 0 0 0 0 0 0 0 0 0 0 0 0 0 0 0 0 0 0 0 0 0 0 0 0 0 0 0 0 0 0 0 0 0
0 -0 -0 -0 -0 -0 -0 0 0 0 0 0 0 0 0 0 0 0 0 0 0 0 0 0 0 0 0 0 0 0 0 0 0 0 0 0 0 0 0 0 0 0 0 0
-0 -0 -0 0 0 -0 -0 -0 0 0 0 0 0 0 0 0 0 0 0 0 0 0 0 0 0 0 0 0 0 0 0 0 0 0 0 0 0 0 0 0 0 0 0 0
-0 0 0 -0 -0 0 0 0 0 0 0 0 0 0 0 0 0 0 0 0 0 0 0 0 0 0 0 0 0 0 0 0 0 0 0 0 0 0 0 0 0 0 0 0
0 0 0 0 0 0 0 0 0 0 0 0 0 0 0 0 0 0 0 0 0 0 0 0 0 0 0 0 0 0 0 0 0 0 0 0 0 0 0 0 0 0 0 0
0 0 0 0 0 0 0 0 0 0 0 0 0 0 0 0 0 0 0 0 0 0 0 0 0 0 0 0 0 0 0 0 0 0 0 0 0 0 0 0 0 0 0 0
0 0 0 0 0 0 0 0 0 0 0 0 0 0 0 0 0 0 0 0 0 0 0 0 0 0 0 0 0 0 0 0 0 0 0 0 0 0 0 0 0 0 0 0
0 0 0 0 0 0 0 0 0 0 0 0 0 0 0 0 0 0 0 0 0 0 0 0 0 0 0 0 0 0 0 0 0 0 0 0 0 0 0 0 0 0 0 0
0 0 0 0 0 0 0 0 0 0 0 0 0 0 0 0 0 0 0 0 0 0 0 0 0 0 0 0 0 0 0 0 0 0 0 0 0 0 0 0 0 0 0 0
0 0 0 0 0 0 0 0 0 0 0 0 0 0 0 0 0 0 0 0 0 0 0 0 0 0 0 0 0 0 0 0 0 0 0 0 0 0 0 0 0 0 0 0
0 0 0 0 0 0 0 0 0 0 0 0 0 0 0 0 0 0 0 0 0 0 0 0 0 0 0 0 0 0 0 0 0 0 0 0 0 0 0 0 0 0 0 0
0 0 0 0 0 0 0 0 0 0 0 0 0 0 0 0 0 0 0 0 0 0 0 0 0 0 0 0 0 0 0 0 0 0 0 0 0 0 0 0 0 0 0 0
0 0 0 0 0 0 0 0 0 0 0 0 0 0 0 0 0 0 0 0 0 0 0 0 0 0 0 0 0 0 0 0 0 0 0 0 0 0 0 0 0 0 0 0
0 0 0 0 0 0 0 0 0 0 0 0 0 0 0 0 0 0 0 0 0 0 0 0 0 0 0 0 0 0 0 0 0 0 0 0 0 0 0 0 0 0 0 0
0 0 0 0 0 0 0 0 0 0 0 0 0 0 0 0 0 0 0 0 0 0 0 0 0 0 0 0 0 0 0 0 0 0 0 0 0 0 0 0 0 0 0 0
0 0 0 0 0 0 0 0 0 0 0 0 0 0 0 0 0 0 0 0 0 0 0 0 0 0 0 0 0 0 0 0 0 0 0 0 0 0 0 0 0 0 0 0
0 0 0 0 0 0 0 0 0 0 0 0 0 0 0 0 0 0 0 0 0 0 0 0 0 0 0 0 0 0 0 0 0 0 0 0 0 0 0 0 0 0 0 0
0 0 0 0 0 0 0 0 0 0 0 0 0 0 0 0 0 0 0 0 0 0 0 0 0 0 0 0 0 0 0 0 0 0 0 0 0 0 0 0 0 0 0 0
Wind_Speed_500mb
4 8 10 5 6 20 32 39 22 38 40 39 31 32 45 49 50 51 67 72 72 67 65 68 56 38 36 41 50 53 57 57 57 56 56 59 60 60 58 56 55 54 53 53
4 2 4 8 23 12 18 27 31 42 46 41 57 54 44 42 44 63 70 70 78 79 80 80 78 72 58 47 51 52 56 58 60 62 62 63 62 63 62 61 61 59 55 53
5 4 6 12 25 27 25 24 23 29 42 40 40 42 48 46 43 62 71 73 76 84 81 83 84 82 71 64 60 64 61 58 58 62 66 69 70 70 69 67 63 60 57 55
2 2 10 7 2 9 21 21 26 32 35 41 48 59 56 39 54 60 63 73 81 82 87 89 87 84 78 72 68 69 70 68 69 71 74 76 76 76 73 70 67 63 59 56
5 6 16 21 3 7 12 17 7 12 22 34 40 45 42 15 37 57 58 65 72 77 84 88 86 79 76 70 68 70 75 69 69 72 77 78 78 76 75 72 70 66 63 61
6 7 13 11 4 4 2 17 11 23 33 42 40 20 25 49 68 66 63 68 74 73 70 70 70 63 68 70 69 76 71 69 69 69 69 72 72 73 73 71 71 69 67 63
12 7 15 13 19 5 7 7 15 27 33 40 24 34 60 68 73 65 68 64 62 66 64 68 70 68 64 60 63 59 58 58 59 62 64 64 64 66 69 70 70 67 65 62
10 9 17 17 7 11 2 31 48 41 33 42 50 60 58 61 62 59 58 57 56 61 67 66 61 60 58 57 56 57 58 59 58 57 56 57 58 59 60 63 65 66 66 63
16 12 11 17 12 12 40 37 36 40 37 49 53 62 61 56 62 65 64 62 51 50 57 65 68 60 58 57 55 54 54 53 52 52 53 51 53 56 58 62 66 67 66 62
6 16 38 42 37 50 56 34 36 38 46 45 47 54 62 68 75 76 70 62 58 60 60 56 52 55 62 64 56 54 55 51 50 52 53 53 55 56 56 60 63 65 66 65
13 35 50 59 45 27 39 48 49 57 45 44 54 62 64 69 73 74 76 76 71 67 65 65 65 65 58 55 60 61 58 59 58 59 57 57 58 57 59 61 57 56 57 60
17 35 27 28 38 47 63 65 61 43 54 56 55 59 60 63 66 70 73 74 75 75 75 73 71 69 66 67 64 60 64 66 66 63 61 61 59 56 57 55 48 51 55 55
35 35 36 45 58 53 41 36 44 53 54 56 50 49 50 55 56 59 62 66 68 71 72 71 70 68 62 64 67 67 67 65 63 62 60 58 57 56 57 49 52 54 54 55
50 45 43 45 25 43 56 54 48 37 34 36 41 46 50 57 63 68 72 73 73 74 72 68 68 66 62 64 63 64 63 63 60 58 55 52 53 53 52 52 52 47 46 47
31 35 37 42 47 19 19 24 29 35 41 48 53 59 64 70 74 76 77 78 79 76 70 67 67 63 61 59 58 56 56 58 55 55 52 50 51 52 53 51 51 49 43 43
37 39 22 5 11 18 26 34 41 49 55 60 65 67 70 73 76 77 74 71 74 75 68 62 58 55 55 55 55 54 53 55 53 52 51 49 51 53 51 51 49 49 52 50
14 9 3 11 22 32 40 46 53 60 66 68 70 72 73 75 76 72 70 66 66 65 62 60 57 51 48 47 47 48 49 51 49 48 47 46 46 48 48 49 50 52 53 51
7 5 15 25 36 45 54 58 61 65 70 70 70 71 70 70 74 77 73 68 66 63 54 55 53 49 45 42 41 42 43 43 42 41 40 41 41 42 42 44 46 48 50 48
4 13 23 32 41 50 59 62 61 62 64 63 66 66 64 65 66 69 68 68 64 63 54 50 47 46 41 37 34 35 36 37 38 37 35 35 35 37 37 39 41 43 45 46
16 25 33 42 50 59 63 59 61 63 61 63 64 65 65 61 59 60 60 60 53 55 51 47 44 41 38 35 35 30 31 30 30 31 31 31 33 34 36 38 38 40 40 39
28 35 47 55 59 58 58 60 62 62 61 58 58 59 61 60 57 57 58 58 47 45 44 41 39 35 33 31 30 27 27 27 26 27 28 29 31 31 32 31 34 33 33 36
39 49 56 60 59 58 55 55 57 58 58 55 51 51 55 55 53 50 45 49 45 41 40 37 35 32 30 27 26 25 25 25 25 25 26 27 28 29 29 29 32 33 33 34
48 54 55 52 51 50 49 50 50 50 49 46 46 47 48 48 48 51 48 38 41 40 37 35 32 30 30 28 26 26 26 26 26 27 27 27 27 29 31 32 31 32 32 32
51 50 46 43 42 43 45 43 41 40 42 42 42 43 45 44 36 35 36 40 39 36 34 33 32 33 30 30 28 27 27 27 28 26 24 28 29 29 29 29 30 31 33 33
45 40 35 35 36 36 37 37 35 35 36 35 36 36 35 36 37 36 36 36 36 35 34 33 31 30 27 27 27 27 28 29 28 28 30 32 32 34 34 31 30 33 34 35
32 29 28 30 31 31 31 32 32 33 33 31 28 31 31 34 35 35 34 34 33 32 31 30 29 28 27 27 27 27 28 29 30 31 32 33 35 36 34 32 32 34 36 37
25 23 22 22 24 25 26 27 28 28 30 31 31 31 33 34 34 34 33 32 31 30 29 29 28 28 27 27 27 28 28 30 30 32 33 34 34 34 33 31 35 37 38 41
Wind_Direction_500mb
84 5 330 338 198 211 216 233 240 261 267 276 279 277 278 280 284 291 291 289 288 287 284 281 268 273 276 274 263 253 249 249 249 247 245 243 244 245 245 245 246 247 249 251
122 246 76 315 288 260 251 260 263 268 274 279 284 283 275 273 279 277 278 280 285 286 284 281 281 272 274 271 262 258 252 251 251 251 249 248 247 247 246 247 247 249 251 254
170 319 211 265 233 229 238 224 231 249 261 280 285 273 268 277 279 271 279 282 283 285 284 283 282 283 279 270 266 254 253 252 253 251 250 248 246 246 246 247 249 251 253 255
111 137 235 231 317 266 235 251 235 260 269 287 290 292 293 296 289 294 299 297 293 287 287 287 284 282 281 277 265 258 252 253 252 249 247 246 245 247 247 248 250 251 252 253
198 224 309 288 40 159 206 265 57 295 322 321 333 320 307 43 348 335 325 315 307 303 294 292 289 288 281 274 268 260 258 257 254 251 248 247 247 248 247 246 246 248 248 247
177 215 218 117 114 39 189 271 65 9 338 332 330 317 304 323 331 329 331 330 331 305 302 303 302 294 283 276 272 267 266 263 258 253 248 248 247 247 246 244 244 243 243 244
220 249 284 247 268 84 184 266 21 348 331 323 311 297 300 307 313 316 323 327 328 320 319 312 298 296 290 280 271 273 266 260 254 249 247 246 245 243 242 240 240 241 241 241
190 224 261 206 194 204 286 325 333 330 328 317 317 320 323 320 316 322 323 321 321 318 321 327 318 305 297 286 282 274 267 260 256 251 246 243 240 240 239 237 238 238 237 235
205 218 243 214 248 247 308 310 320 326 324 321 313 309 312 312 315 317 318 316 311 307 303 304 310 317 308 300 290 278 268 261 254 249 244 241 240 241 237 236 235 235 236 235
195 239 256 272 280 295 302 305 309 311 311 308 306 308 307 309 311 311 313 315 313 309 301 294 289 289 294 301 296 287 275 262 257 255 253 250 247 246 244 242 238 237 237 235
262 271 274 277 274 292 302 306 306 306 301 300 305 305 307 309 309 309 308 309 310 308 304 299 295 291 285 277 279 280 275 271 266 259 255 251 247 245 244 243 242 244 245 245
225 234 240 261 285 294 297 298 301 301 302 306 306 305 307 308 307 308 309 311 309 306 302 298 294 290 288 286 280 273 270 270 268 264 259 255 251 247 244 237 230 233 235 237
236 254 269 285 295 298 300 302 302 302 305 307 310 311 313 312 313 313 313 312 310 307 304 300 295 291 289 284 278 275 272 270 267 262 257 253 248 243 239 234 232 230 229 232
248 265 276 285 284 294 298 299 304 312 317 317 317 317 314 312 313 313 312 311 308 306 304 301 296 292 287 282 279 276 273 268 263 260 256 252 248 244 241 235 228 225 229 230
266 269 264 278 300 318 330 332 327 327 325 321 319 316 314 311 309 308 307 307 303 303 303 300 297 296 290 284 277 273 269 266 260 256 255 251 248 242 235 230 227 227 222 218
300 282 267 283 6 349 339 334 326 322 320 317 314 312 309 308 308 308 309 306 303 303 304 302 299 295 290 285 280 274 268 264 260 258 254 248 243 239 234 231 231 227 222 222
264 152 1 344 339 332 328 324 319 316 313 311 311 309 310 314 314 315 313 310 305 304 304 304 303 299 294 288 282 275 268 264 260 258 255 250 245 242 238 234 229 224 223 225
132 10 340 330 327 324 323 321 317 313 310 310 308 308 310 312 316 316 314 310 307 305 307 303 303 301 297 290 282 276 270 266 262 257 254 251 246 241 237 232 228 225 224 223
340 324 322 321 318 315 314 313 311 309 309 310 309 309 311 313 314 313 312 310 311 309 309 304 303 303 301 295 285 275 267 262 259 256 252 247 241 236 230 226 222 223 226 225
304 312 315 317 316 314 312 312 312 312 314 312 312 312 313 316 316 313 312 310 311 307 307 307 304 302 300 294 286 277 267 260 256 253 248 240 232 227 224 223 224 225 226 226
310 316 317 315 314 314 312 313 313 313 313 313 313 314 315 318 319 316 315 313 318 310 307 306 305 300 298 294 290 279 268 261 254 249 245 240 234 230 228 227 227 228 232 235
309 309 310 312 312 314 313 312 311 313 312 314 314 315 315 318 316 314 315 312 316 314 313 307 305 302 296 290 284 274 266 259 253 246 241 239 236 233 230 231 234 236 238 241
300 305 308 309 310 312 314 315 315 314 314 315 317 318 318 319 320 319 322 322 319 315 313 312 306 300 294 288 279 269 262 256 251 248 245 241 238 237 238 239 240 243 248 254
302 305 306 309 313 317 319 319 320 317 316 318 319 320 322 323 325 321 320 321 320 319 317 317 311 304 298 292 283 273 266 262 257 251 249 249 248 248 249 251 254 259 261 263
301 305 308 313 317 319 320 322 324 321 322 323 324 325 326 326 327 327 323 322 321 321 320 318 314 309 303 297 288 277 269 263 258 252 247 245 245 247 251 254 259 262 264 268
300 305 312 316 321 325 328 331 334 331 330 331 330 327 326 326 327 327 327 326 324 322 321 318 316 313 307 297 291 285 279 273 268 265 262 261 259 258 256 254 258 263 268 274
298 306 316 320 323 326 329 332 334 334 333 335 337 335 335 335 334 333 332 330 327 324 321 318 314 309 304 299 293 287 281 277 274 272 269 267 264 261 258 261 265 269 275 281
Wind_Speed_850mb
4 8 10 5 6 20 32 39 22 38 40 39 31 32 45 49 50 51 67 72 72 67 65 68 56 38 36 41 50 53 57 57 57 56 56 59 60 60 58 56 55 54 53 53
4 2 4 8 23 12 18 27 31 42 46 41 57 54 44 42 44 63 70 70 78 79 80 80 78 72 58 47 51 52 56 58 60 62 62 63 62 63 62 61 61 59 55 53
5 4 6 12 25 27 25 24 23 29 42 40 40 42 48 46 43 62 71 73 76 84 81 83 84 82 71 64 60 64 61 58 58 62 66 69 70 70 69 67 63 60 57 55
2 2 10 7 2 9 21 21 26 32 35 41 48 59 56 39 54 60 63 73 81 82 87 89 87 84 78 72 68 69 70 68 69 71 74 76 76 76 73 70 67 63 59 56
5 6 16 21 3 7 12 17 7 12 22 34 40 45 42 15 37 57 58 65 72 77 84 88 86 79 76 70 68 70 75 69 69 72 77 78 78 76 75 72 70 66 63 61
6 7 13 11 4 4 2 17 11 23 33 42 40 20 25 49 68 66 63 68 74 73 70 70 70 63 68 70 69 76 71 69 69 69 69 72 72 73 73 71 71 69 67 63
12 7 15 13 19 5 7 7 15 27 33 40 24 34 60 68 73 65 68 64 62 66 64 68 70 68 64 60 63 59 58 58 59 62 64 64 64 66 69 70 70 67 65 62
10 9 17 17 7 11 2 31 48 41 33 42 50 60 58 61 62 59 58 57 56 61 67 66 61 60 58 57 56 57 58 59 58 57 56 57 58 59 60 63 65 66 66 63
16 12 11 17 12 12 40 37 36 40 37 49 53 62 61 56 62 65 64 62 51 50 57 65 68 60 58 57 55 54 54 53 52 52 53 51 53 56 58 62 66 67 66 62
6 16 38 42 37 50 56 34 36 38 46 45 47 54 62 68 75 76 70 62 58 60 60 56 52 55 62 64 56 54 55 51 50 52 53 53 55 56 56 60 63 65 66 65
13 35 50 59 45 27 39 48 49 57 45 44 54 62 64 69 73 74 76 76 71 67 65 65 65 65 58 55 60 61 58 59 58 59 57 57 58 57 59 61 57 56 57 60
17 35 27 28 38 47 63 65 61 43 54 56 55 59 60 63 66 70 73 74 75 75 75 73 71 69 66 67 64 60 64 66 66 63 61 61 59 56 57 55 48 51 55 55
35 35 36 45 58 53 41 36 44 53 54 56 50 49 50 55 56 59 62 66 68 71 72 71 70 68 62 64 67 67 67 65 63 62 60 58 57 56 57 49 52 54 54 55
50 45 43 45 25 43 56 54 48 37 34 36 41 46 50 57 63 68 72 73 73 74 72 68 68 66 62 64 63 64 63 63 60 58 55 52 53 53 52 52 52 47 46 47
31 35 37 42 47 19 19 24 29 35 41 48 53 59 64 70 74 76 77 78 79 76 70 67 67 63 61 59 58 56 56 58 55 55 52 50 51 52 53 51 51 49 43 43
37 39 22 5 11 18 26 34 41 49 55 60 65 67 70 73 76 77 74 71 74 75 68 62 58 55 55 55 55 54 53 55 53 52 51 49 51 53 51 51 49 49 52 50
14 9 3 11 22 32 40 46 53 60 66 68 70 72 73 75 76 72 70 66 66 65 62 60 57 51 48 47 47 48 49 51 49 48 47 46 46 48 48 49 50 52 53 51
7 5 15 25 36 45 54 58 61 65 70 70 70 71 70 70 74 77 73 68 66 63 54 55 53 49 45 42 41 42 43 43 42 41 40 41 41 42 42 44 46 48 50 48
4 13 23 32 41 50 59 62 61 62 64 63 66 66 64 65 66 69 68 68 64 63 54 50 47 46 41 37 34 35 36 37 38 37 35 35 35 37 37 39 41 43 45 46
16 25 33 42 50 59 63 59 61 63 61 63 64 65 65 61 59 60 60 60 53 55 51 47 44 41 38 35 35 30 31 30 30 31 31 31 33 34 36 38 38 40 40 39
28 35 47 55 59 58 58 60 62 62 61 58 58 59 61 60 57 57 58 58 47 45 44 41 39 35 33 31 30 27 27 27 26 27 28 29 31 31 32 31 34 33 33 36
39 49 56 60 59 58 55 55 57 58 58 55 51 51 55 55 53 50 45 49 45 41 40 37 35 32 30 27 26 25 25 25 25 25 26 27 28 29 29 29 32 33 33 34
48 54 55 52 51 50 49 50 50 50 49 46 46 47 48 48 48 51 48 38 41 40 37 35 32 30 30 28 26 26 26 26 26 27 27 27 27 29 31 32 31 32 32 32
51 50 46 43 42 43 45 43 41 40 42 42 42 43 45 44 36 35 36 40 39 36 34 33 32 33 30 30 28 27 27 27 28 26 24 28 29 29 29 29 30 31 33 33
45 40 35 35 36 36 37 37 35 35 36 35 36 36 35 36 37 36 36 36 36 35 34 33 31 30 27 27 27 27 28 29 28 28 30 32 32 34 34 31 30 33 34 35
32 29 28 30 31 31 31 32 32 33 33 31 28 31 31 34 35 35 34 34 33 32 31 30 29 28 27 27 27 27 28 29 30 31 32 33 35 36 34 32 32 34 36 37
25 23 22 22 24 25 26 27 28 28 30 31 31 31 33 34 34 34 33 32 31 30 29 29 28 28 27 27 27 28 28 30 30 32 33 34 34 34 33 31 35 37 38 41
Wind_Direction_850mb
84 5 330 338 198 211 216 233 240 261 267 276 279 277 278 280 284 291 291 289 288 287 284 281 268 273 276 274 263 253 249 249 249 247 245 243 244 245 245 245 246 247 249 251
122 246 76 315 288 260 251 260 263 268 274 279 284 283 275 273 279 277 278 280 285 286 284 281 281 272 274 271 262 258 252 251 251 251 249 248 247 247 246 247 247 249 251 254
170 319 211 265 233 229 238 224 231 249 261 280 285 273 268 277 279 271 279 282 283 285 284 283 282 283 279 270 266 254 253 252 253 251 250 248 246 246 246 247 249 251 253 255
111 137 235 231 317 266 235 251 235 260 269 287 290 292 293 296 289 294 299 297 293 287 287 287 284 282 281 277 265 258 252 253 252 249 247 246 245 247 247 248 250 251 252 253
198 224 309 288 40 159 206 265 57 295 322 321 333 320 307 43 348 335 325 315 307 303 294 292 289 288 281 274 268 260 258 257 254 251 248 247 247 248 247 246 246 248 248 247
177 215 218 117 114 39 189 271 65 9 338 332 330 317 304 323 331 329 331 330 331 305 302 303 302 294 283 276 272 267 266 263 258 253 248 248 247 247 246 244 244 243 243 244
220 249 284 247 268 84 184 266 21 348 331 323 311 297 300 307 313 316 323 327 328 320 319 312 298 296 290 280 271 273 266 260 254 249 247 246 245 243 242 240 240 241 241 241
190 224 261 206 194 204 286 325 333 330 328 317 317 320 323 320 316 322 323 321 321 318 321 327 318 305 297 286 282 274 267 260 256 251 246 243 240 240 239 237 238 238 237 235
205 218 243 214 248 247 308 310 320 326 324 321 313 309 312 312 315 317 318 316 311 307 303 304 310 317 308 300 290 278 268 261 254 249 244 241 240 241 237 236 235 235 236 235
195 239 256 272 280 295 302 305 309 311 311 308 306 308 307 309 311 311 313 315 313 309 301 294 289 289 294 301 296 287 275 262 257 255 253 250 247 246 244 242 238 237 237 235
262 271 274 277 274 292 302 306 306 306 301 300 305 305 307 309 309 309 308 309 310 308 304 299 295 291 285 277 279 280 275 271 266 259 255 251 247 245 244 243 242 244 245 245
225 234 240 261 285 294 297 298 301 301 302 306 306 305 307 308 307 308 309 311 309 306 302 298 294 290 288 286 280 273 270 270 268 264 259 255 251 247 244 237 230 233 235 237
236 254 269 285 295 298 300 302 302 302 305 307 310 311 313 312 313 313 313 312 310 307 304 300 295 291 289 284 278 275 272 270 267 262 257 253 248 243 239 234 232 230 229 232
248 265 276 285 284 294 298 299 304 312 317 317 317 317 314 312 313 313 312 311 308 306 304 301 296 292 287 282 279 276 273 268 263 260 256 252 248 244 241 235 228 225 229 230
266 269 264 278 300 318 330 332 327 327 325 321 319 316 314 311 309 308 307 307 303 303 303 300 297 296 290 284 277 273 269 266 260 256 255 251 248 242 235 230 227 227 222 218
300 282 267 283 6 349 339 334 326 322 320 317 314 312 309 308 308 308 309 306 303 303 304 302 299 295 290 285 280 274 268 264 260 258 254 248 243 239 234 231 231 227 222 222
264 152 1 344 339 332 328 324 319 316 313 311 311 309 310 314 314 315 313 310 305 304 304 304 303 299 294 288 282 275 268 264 260 258 255 250 245 242 238 234 229 224 223 225
132 10 340 330 327 324 323 321 317 313 310 310 308 308 310 312 316 316 314 310 307 305 307 303 303 301 297 290 282 276 270 266 262 257 254 251 246 241 237 232 228 225 224 223
340 324 322 321 318 315 314 313 311 309 309 310 309 309 311 313 314 313 312 310 311 309 309 304 303 303 301 295 285 275 267 262 259 256 252 247 241 236 230 226 222 223 226 225
304 312 315 317 316 314 312 312 312 312 314 312 312 312 313 316 316 313 312 310 311 307 307 307 304 302 300 294 286 277 267 260 256 253 248 240 232 227 224 223 224 225 226 226
310 316 317 315 314 314 312 313 313 313 313 313 313 314 315 318 319 316 315 313 318 310 307 306 305 300 298 294 290 279 268 261 254 249 245 240 234 230 228 227 227 228 232 235
309 309 310 312 312 314 313 312 311 313 312 314 314 315 315 318 316 314 315 312 316 314 313 307 305 302 296 290 284 274 266 259 253 246 241 239 236 233 230 231 234 236 238 241
300 305 308 309 310 312 314 315 315 314 314 315 317 318 318 319 320 319 322 322 319 315 313 312 306 300 294 288 279 269 262 256 251 248 245 241 238 237 238 239 240 243 248 254
302 305 306 309 313 317 319 319 320 317 316 318 319 320 322 323 325 321 320 321 320 319 317 317 311 304 298 292 283 273 266 262 257 251 249 249 248 248 249 251 254 259 261 263
301 305 308 313 317 319 320 322 324 321 322 323 324 325 326 326 327 327 323 322 321 321 320 318 314 309 303 297 288 277 269 263 258 252 247 245 245 247 251 254 259 262 264 268
300 305 312 316 321 325 328 331 334 331 330 331 330 327 326 326 327 327 327 326 324 322 321 318 316 313 307 297 291 285 279 273 268 265 262 261 259 258 256 254 258 263 268 274
298 306 316 320 323 326 329 332 334 334 333 335 337 335 335 335 334 333 332 330 327 324 321 318 314 309 304 299 293 287 281 277 274 272 269 267 264 261 258 261 265 269 275 281